Estación Meteorológica Peña el Pijo (Robertgarden) [ 11/14/19 12:07:37 CET ]

Fecha Hora Presion(HPa) Temp (°C) Humedad % Rocio (°C) Viento ( m/s) Direccion Lluvia 1Hora(mm) Lluvia 24H(mm) LLuvia Total(mm)
2019-Jul-13 01:09:02 1012.400 - - - - NNW     342.62
2019-Jul-13 02:09:06 1012.300 - - - - NNW     342.62
2019-Jul-13 03:09:56 1010.900 - - - - NNW     342.62
2019-Jul-13 04:09:55 1010.600 - - - - NNW     342.62
2019-Jul-13 05:10:21 1010.800 - - - - NNW     342.62
2019-Jul-13 06:10:44 1011.400 - - - - NNW     342.62
2019-Jul-13 07:09:20 1010.400 - - - - NNW     342.62
2019-Jul-13 08:09:14 1010.500 - - - - NNW     342.62
2019-Jul-13 09:09:11 1010.700 - - - - NNW     342.62
2019-Jul-13 10:09:41 1010.200 - - - - NNW     342.62
2019-Jul-13 11:09:14 1010.000 - - - - NNW     342.62
2019-Jul-13 12:09:06 1010.300 - - - - NNW     342.62
2019-Jul-13 13:09:12 1010.900 - - - - NNW     342.62
2019-Jul-13 14:09:23 1010.500 - - - - NNW     342.62
2019-Jul-13 15:09:16 1009.900 - - - - NNW     342.62
2019-Jul-13 16:09:04 1009.200 - - - - NNW     342.62
2019-Jul-13 17:09:18 1008.300 - - - - NNW     342.62
2019-Jul-13 18:09:14 1008.100 - - - - NNW     342.62
2019-Jul-13 19:09:20 1008.200 - - - - NNW     342.62
2019-Jul-13 20:09:35 1008.400 - - - - NNW     342.62
2019-Jul-13 21:08:44 1008.200 - - - - NNW     342.62
2019-Jul-13 22:08:54 1008.700 - - - - NNW     342.62
2019-Jul-13 23:08:42 1009.000 - - - - NNW     342.62

Temperatura Máxima:    Temperatura Mínima:
Presión Máxima:1012.400 Hpa    Presión Mínima:1008.100 Hpa


Volver